Location: Caltech
(34.1382°N, 118.1253°W)
Time: 00:58:33
(UTC-07:00)

ASTRO E2 - Visible Passes

Search period start: 23 October 2014 00:00
Search period end: 02 November 2014 00:00
Orbit: 533 x 540 km, 31.4° (Epoch: 22 October)

Date Brightness Start Highest point End Pass type
(mag) Time Alt. Az. Time Alt. Az. Time Alt. Az.
23 Oct 5.5 05:53:45 10° S 05:55:27 12° SSE 05:57:09 10° SE visible
24 Oct 5.3 05:41:52 10° SSW 05:44:19 16° SSE 05:46:47 10° ESE visible
25 Oct 5.0 05:31:01 13° SSW 05:33:11 19° SSE 05:36:07 10° ESE visible
26 Oct 4.5 05:20:58 21° S 05:22:03 23° SSE 05:25:19 10° ESE visible
27 Oct 4.3 05:10:49 27° SSE 05:10:55 28° SSE 05:14:25 10° ESE visible
28 Oct 4.3 05:00:34 30° SE 05:00:34 30° SE 05:03:27 10° E visible
28 Oct 3.2 06:36:28 10° WSW 06:40:29 58° S 06:44:30 10° E visible
29 Oct 4.7 04:50:15 26° ESE 04:50:15 26° ESE 04:52:25 10° E visible
29 Oct 3.1 06:25:33 11° WSW 06:29:22 59° S 06:33:24 10° E visible
30 Oct 5.2 04:39:52 20° ESE 04:39:52 20° ESE 04:41:21 10° E visible
30 Oct 3.1 06:15:10 16° WSW 06:18:15 59° S 06:22:16 10° ESE visible
31 Oct 5.6 04:29:26 15° E 04:29:26 15° E 04:30:16 10° E visible
31 Oct 3.1 06:04:45 23° WSW 06:07:07 57° S 06:11:07 10° ESE visible
01 Nov 6.0 04:18:59 11° E 04:18:59 11° E 04:19:08 10° E visible
01 Nov 3.1 05:54:17 31° WSW 05:55:57 54° S 05:59:57 10° ESE visible
